Regional Weather Roundup
Issued by NWS Upton, NY

Current Version | Previous Version | Text Only | Print | Product List | Glossary On
Versions: 1 2 3 4 5 6 7 8 9 10 11 12 13 14 15 16 17 18 19 20 21 22 23 24 25 26 27 28 29 30 31 32 33 34 35 36 37 38 39 40 41 42 43 44 45 46 47 48 49 50
000
ASUS41 KOKX 262105
RWROKX

REGIONAL WEATHER ROUNDUP
NATIONAL WEATHER SERVICE NEW YORK NY
400 PM EST THU FEB 26 2015

NOTE: "FAIR" INDICATES FEW OR NO CLOUDS BELOW 12,000 FEET WITH NO
SIGNIFICANT WEATHER AND/OR OBSTRUCTIONS TO VISIBILITY.

NYZ071-072-176-178-NJZ106-104-262200-
NEW YORK CITY METRO AREA


CITY           SKY/WX    TMP DP  RH WIND       PRES   REMARKS
CENTRAL PARK   CLOUDY    26  13  57 N8        29.99R WCI  18
LAGUARDIA APRT CLOUDY    26  15  63 N8        29.98R WCI  18
KENNEDY INTL   CLOUDY    27  15  61 N12       29.99R WCI  17
NEWARK/LIBERTY CLOUDY    26  16  65 NE6       29.98R WCI  19
BRNX BOT. GARD   N/A    N/A N/A N/A N8        29.97F
TETERBORO      FLURRIES  26  13  57 NE6       29.98R WCI  19
$$

NYZ177-179-078>081-262200-
LONG ISLAND NEW YORK

CITY           SKY/WX    TMP DP  RH WIND       PRES   REMARKS
FARMINGDALE    CLOUDY    24  15  68 N10       29.98R WCI  14
ISLIP          CLOUDY    24  15  68 N10       29.95R WCI  14
SHIRLEY        CLOUDY    25  15  66 N10       29.97R WCI  15
WESTHAMPTON    CLOUDY    25  15  66 N13       29.97R WCI  14
MONTAUK POINT    N/A     28  18  66 N12G21    29.95R WCI  18
$$

NYZ052-065-067-262200-
HUDSON VALLEY

CITY           SKY/WX    TMP DP  RH WIND       PRES   REMARKS
WHITE PLAINS   CLOUDY    24  12  60 N8        29.94R WCI  15
NEWBURGH       CLOUDY    19  12  73 VRB5      29.99R WCI  13
MONTGOMERY     CLOUDY    20  10  65 NE9       29.97R WCI   9
POUGHKEEPSIE   CLOUDY    21   9  59 N9        30.00R WCI  11
ALBANY         PTSUNNY   20  -3  36 N7        30.03R WCI  11
$$

NJZ001-105-106-008-010-013-015-019>022-104-262200-
NEW JERSEY

CITY           SKY/WX    TMP DP  RH WIND       PRES   REMARKS
NEWARK/LIBERTY CLOUDY    26  16  65 NE6       29.98R WCI  19
TETERBORO      FLURRIES  26  13  57 NE6       29.98R WCI  19
CALDWELL       CLOUDY    25  12  58 VRB5      29.99R WCI  19
MORRISTOWN     CLOUDY    27  14  59 N8        29.98R WCI  18
SOMERVILLE     CLOUDY    27  14  58 N8        29.97R WCI  19
SUSSEX         CLOUDY    23  11  60 NE8       29.96R WCI  14
ANDOVER          N/A     23  11  60 CALM      29.96R
TRENTON        CLOUDY    28  15  58 N6        29.96R WCI  22
MILLVILLE      CLOUDY    32  14  47 N8        29.96R WCI  25
ATLANTIC CITY  CLOUDY    32  14  47 N9        29.95R WCI  24
WRIGHTSTOWN    CLOUDY    28  18  65 N12       29.94R WCI  18
TOMS RIVER     CLOUDY    28  16  59 N9        29.96R WCI  20
BELMAR         CLOUDY    27  16  63 N10       29.95R WCI  17
$$

PAZ047>061-062-071-262200-
EASTERN PENNSYLVANIA

CITY           SKY/WX    TMP DP  RH WIND       PRES   REMARKS
PHILADELPHIA   CLOUDY    32  16  51 NE9       29.98R WCI  24
ALLENTOWN      CLOUDY    26  13  57 CALM      29.97R
SCRANTON       LGT SNOW  22  12  65 N8        29.95R WCI  12
$$

CTZ002-004>006-009-010-012-RIZ004-006-007-MAZ004-011-015-262200-
SOUTHERN NEW ENGLAND
 IN CT

CITY           SKY/WX    TMP DP  RH WIND       PRES   REMARKS
BRADLEY INTL   CLOUDY    24  10  55 NW9       29.97R WCI  14
HARTFORD       CLOUDY    22  12  65 N8        29.99R WCI  12
DANBURY        PTSUNNY   23  11  60 N7        29.96R WCI  15
WTRBRY/OXFORD  CLOUDY    21   7  53 NE12      29.94R WCI   9
BRIDGEPORT     CLOUDY    25  14  63 N12       29.98R WCI  14
MERIDEN        CLOUDY    23  12  62 VRB5      29.98R WCI  17
NEW HAVEN      CLOUDY    24  14  65 N13       29.97R WCI  12
CHESTER        CLOUDY    27  16  63 NE8       29.94R WCI  18
GROTON         CLOUDY    25  16  68 N16       29.94R WCI  12
WILLIMANTIC    CLOUDY    25  14  63 NE10      29.96R WCI  15

 IN RI

CITY           SKY/WX    TMP DP  RH WIND       PRES   REMARKS
PROVIDENCE     CLOUDY    23  16  74 N14       29.96R WCI  11
BLOCK ISLAND   CLOUDY    25  18  74 NE14G23   29.90R WCI  13
WESTERLY       CLOUDY    26  16  65 NE12      29.94R WCI  16

 IN MA

CITY           SKY/WX    TMP DP  RH WIND       PRES   REMARKS
BOSTON         CLOUDY    21  12  68 N14       29.99R WCI   8
WORCESTER      CLOUDY    21  10  62 NE5       29.90R WCI  15
WESTFIELD      CLOUDY    23   8  52 N3        29.97R
PROVINCETOWN   MOSUNNY   27  19  74 NE21G29   29.94R WCI  13
NANTUCKET      CLOUDY    30  26  85 NE23G32   29.86R FOG     WCI  17
$$

ANZ330-335-338-340-345-350-353-355-262200-
COASTAL MARINE OBSERVATIONS


STATION/POSITION TIME  SKY/WX   TEMP    WIND        PRES    VSBY  WAVE
                                AIR SEA DIR/SP/G                  HT/PER
                 (UTC)          (F)     (DEG/KT/KT) (MB)    (MI)  (FT/S)
NY HARB ENTRANCE 2100            27 39   10/ 16/ 19 1014.6          4/ 5
4S FIRE IS       NOT AVBL
20S FIRE ISLAND  2000               36              1013.1          5/ 6
23SW MTP         2100                                 N/A           6/ 6
HUDSON CANYON    NOT AVBL
EXECUTION ROCKS  NOT AVBL
WESTERN LI SOUND NOT AVBL
CENTRAL LI SOUND NOT AVBL
EASTERN LI SOUND NOT AVBL
ROBBINS REEF     2100            25      10/ 10/ 13 1014.0
$$


>>>>>>>>>>>>>>>>>>>>>>>>>>>> KEY <<<<<<<<<<<<<<<<<<<<<<<<<<<
>                                                          <
>     SKY/WX - SKY CONDITION/PRESENT WEATHER               <
>     TMP    - TEMPERATURE IN FAHRENHEIT                   <
>     DP     - DEWPOINT IN FAHRENHEIT                      <
>     RH     - RELATIVE HUMIDITY IN PERCENT                <
>     WIND   - DIRECTION AND SPEED IN MPH                  <
>     PRES   - MEAN SEA LEVEL PRESSURE IN INCHES OF HG     <
>     WCI    - WIND CHILL INDEX                            <
>     VSB    - VISIBILITY IN MILES                         <
>     HX     - HEAT INDEX                                  <
>     TC     - TEMPERATURE IN CELSIUS                      <
>     VRB    - VARIABLE WIND DIRECTION                     <
>                                                          <
>>>>>>>>>>>>>>>>>>>>>>>>>>>> KEY <<<<<<<<<<<<<<<<<<<<<<<<<<<




USA.gov is the U.S. government's official web portal to all federal, state and local government web resources and services.